Weather History for KSNT - March, 2014

Change the Weather History Date:

Thursday, March 6, 2014

  Actual Average Record
Temperature  
Mean Temperature 37 °F 24 °F  
Max Temperature 43 °F 39 °F 53 °F (1979)
Min Temperature 30 °F 9 °F -25 °F (1971)
Degree Days  
Heating Degree Days 28 41  
Month to date heating degree days 192 249  
Since 1 July heating degree days 7360 7783  
Cooling Degree Days 0 0  
Month to date cooling degree days 0 0  
Year to date cooling degree days 0 0  
Moisture  
Dew Point 30 °F    
Average Humidity 70    
Maximum Humidity 96    
Minimum Humidity 44    
Precipitation  
Precipitation 0.55 in 0.04 in 0.55 in (2014)
Month to date precipitation 1.26 0.24  
Year to date precipitation 7.80 3.55  
Sea Level Pressure  
Sea Level Pressure 29.78 in    
Wind  
Wind Speed 6 mph (SSE)    
Max Wind Speed 18 mph    
Max Gust Speed 29 mph    
T = Trace of Precipitation, MM = Missing Value Source: NWS Daily Summary

Daily Weather History Graph

Daily Weather History Graph

Search for Another Location

Airport or City:

Trip Planner

Search our weather history database for the weather conditions in past years. The results will help you decide how hot, cold, wet, or windy it might be!

Date:

Astronomy

Mar. 06, 2014 Rise Set
Actual Time 7:07 AM MST 6:34 PM MST
Civil Twilight 6:39 AM MST 7:03 PM MST
Nautical Twilight 6:05 AM MST 7:37 PM MST
Astronomical Twilight 5:31 AM MST 8:10 PM MST
Moon 10:06 AM MST (3/6) No Moon Set
Length of Visible Light 12h 24m
Length of Day
11h 26m
Waxing Crescent, 33% of the Moon is Illuminated
Mar 6
Waxing Crescent
Mar 8
First Quarter
Mar 16
Full
Mar 23
Last Quarter
Mar 30
New

Hourly Weather History & Observations

Time (MST) Temp. Windchill Dew Point Humidity Pressure Visibility Wind Dir Wind Speed Gust Speed Precip Events Conditions
12:51 AM 37.0 °F 28.9 °F 34.0 °F 89% 29.74 in - SSE 12.7 mph 20.7 mph 0.01 in   Unknown
1:51 AM 37.0 °F 28.1 °F 34.0 °F 89% 29.72 in - SSE 15.0 mph 21.9 mph 0.01 in   Unknown
2:51 AM 37.0 °F 29.3 °F 35.1 °F 93% 29.72 in - SSE 11.5 mph 20.7 mph 0.08 in   Unknown
3:51 AM 37.0 °F 31.6 °F 35.1 °F 93% 29.71 in - SSE 6.9 mph - 0.03 in   Unknown
4:51 AM 39.0 °F 33.4 °F 36.0 °F 89% 29.71 in - SSE 8.1 mph 18.4 mph 0.02 in   Unknown
5:51 AM 37.9 °F - 35.1 °F 89% 29.66 in - North - - 0.04 in   Unknown
6:51 AM 37.9 °F 29.6 °F 34.0 °F 86% 29.71 in - West 13.8 mph 23.0 mph 0.08 in   Unknown
7:51 AM 37.9 °F 33.5 °F 30.0 °F 73% 29.75 in - Variable 5.8 mph - 0.14 in   Unknown
8:51 AM 33.1 °F 26.1 °F 32.0 °F 96% 29.77 in - SSE 8.1 mph - 0.04 in   Unknown
9:51 AM 36.0 °F 33.3 °F 30.9 °F 82% 29.77 in - SSE 3.5 mph - N/A   Unknown
10:51 AM 33.1 °F 30.0 °F 30.9 °F 92% 29.81 in - Variable 3.5 mph - 0.02 in   Unknown
11:51 AM 36.0 °F - 30.0 °F 79% 29.79 in - North - - 0.06 in   Unknown
12:51 PM 39.0 °F 36.8 °F 25.0 °F 57% 29.78 in - Variable 3.5 mph - N/A   Unknown
1:51 PM 39.9 °F 36.7 °F 26.1 °F 58% 29.75 in - East 4.6 mph - N/A   Unknown
2:51 PM 39.9 °F 33.9 °F 19.9 °F 45% 29.76 in - WSW 9.2 mph - N/A   Unknown
3:51 PM 37.0 °F 31.6 °F 27.0 °F 67% 29.79 in - ENE 6.9 mph - N/A   Unknown
4:51 PM 37.9 °F - 23.0 °F 55% 29.76 in - Calm Calm - 0.01 in   Unknown
5:51 PM 33.1 °F 30.0 °F 28.9 °F 85% 29.81 in - SSE 3.5 mph - N/A   Unknown
6:51 PM 33.1 °F 28.7 °F 28.0 °F 82% 29.82 in - SW 4.6 mph - N/A   Unknown
7:51 PM 33.1 °F - 28.9 °F 85% 29.85 in - Calm Calm - N/A   Unknown
8:51 PM 32.0 °F - 28.0 °F 85% 29.88 in - Calm Calm - N/A   Unknown
9:51 PM 32.0 °F 28.7 °F 28.0 °F 85% 29.89 in - ESE 3.5 mph - N/A   Unknown
10:51 PM 30.9 °F - 28.9 °F 92% 29.92 in - Calm Calm - 0.01 in   Unknown
11:51 PM 30.9 °F - 28.9 °F 92% 29.92 in - Calm Calm - N/A   Unknown